Volver al catálogo

BREEZE-M DEB

ActivoHEO
NORAD 37205·DEBRIS·🇷🇺 Russia

Lanzado Mar 14, 2008 desde Baikonur Cosmodrome

Loading…

Próximos Pases (próximas 24 horas)

TLE

ActualizadoSource: Space-Track

Época: Sep 13, 2026, 07:30 UTC

1 37205U 08011K   26256.31265402 -.00000117  00000-0  00000-0 0  9991
2 37205  49.3097  21.8123 6365404 210.8143  87.7463  3.05953192 24115

Sigue BREEZE-M DEB en tiempo real con AllMySat

Download on the App Store